Terminal Aerodrome Forecast
Issued by NWS Charleston, WV

Current Version | Previous Version | Graphics & Text | Print | Product List | Glossary On
Versions: 1 2 3 4 5 6 7 8 9 10 11 12 13 14 15 16 17 18 19 20 21 22 23 24
000
FTUS41 KRLX 281500 AAB
TAFPKB
TAF AMD
KPKB 281501Z 2815/2912 VRB04KT P6SM SCT120
     FM291000 00000KT 5SM BR SCT110=

USA.gov is the U.S. government's official web portal to all federal, state and local government web resources and services.